Weather History for PAKT - November, 2013

Change the Weather History Date:

Sunday, November 24, 2013

  Actual Average Record
Temperature  
Mean Temperature 40 °F -  
Max Temperature 42 °F 43 °F 56 °F (1954)
Min Temperature 39 °F 33 °F 14 °F (1955)
Degree Days  
Heating Degree Days 24    
Moisture  
Dew Point 39 °F    
Average Humidity 95    
Maximum Humidity 100    
Minimum Humidity 92    
Precipitation  
Precipitation 0.15 in - - ()
Sea Level Pressure  
Sea Level Pressure 30.17 in    
Wind  
Wind Speed 6 mph (NNW)    
Max Wind Speed 9 mph    
Max Gust Speed -    
Visibility 10 miles    
Events Rain    
Averages and records for this station are not official NWS values.
T = Trace of Precipitation, MM = Missing Value Source: NWS Daily Summary

Daily Weather History Graph

Daily Weather History Graph

Search for Another Location

Airport or City:

Trip Planner

Search our weather history database for the weather conditions in past years. The results will help you decide how hot, cold, wet, or windy it might be!

Date:

Astronomy

Nov. 24, 2013 Rise Set
Actual Time 7:38 AM AKST 3:28 PM AKST
Civil Twilight 6:55 AM AKST 4:11 PM AKST
Nautical Twilight 6:09 AM AKST 4:57 PM AKST
Astronomical Twilight 5:25 AM AKST 5:41 PM AKST
Moon 10:37 PM AKST (11/24) 11:57 AM AKST (11/24)
Length of Visible Light 9h 16m
Length of Day
7h 49m
Waning Gibbous, 59% of the Moon is Illuminated
Nov 24
Waning Gibbous
Nov 25
Last Quarter
Dec 2
New
Dec 9
First Quarter
Dec 17
Full

Hourly Weather History & Observations

Time (AKST) Temp. Windchill Dew Point Humidity Pressure Visibility Wind Dir Wind Speed Gust Speed Precip Events Conditions
12:53 AM 41.0 °F 35.8 °F 39.0 °F 93% 30.24 in 10.0 mi NW 8.1 mph - N/A   Overcast
1:53 AM 39.9 °F 33.9 °F 37.9 °F 93% 30.23 in 10.0 mi NW 9.2 mph - N/A   Overcast
2:29 AM 39.2 °F 33.6 °F 37.4 °F 93% 30.22 in 10.0 mi NW 8.1 mph - N/A   Overcast
3:14 AM 39.2 °F 35.9 °F 39.2 °F 100% 30.21 in 10.0 mi North 4.6 mph - N/A   Mostly Cloudy
3:49 AM 39.2 °F 37.0 °F 39.2 °F 100% 30.21 in 10.0 mi NW 3.5 mph - N/A   Overcast
3:53 AM 39.9 °F 35.1 °F 37.9 °F 93% 30.22 in 10.0 mi NW 6.9 mph - N/A   Overcast
4:53 AM 39.9 °F 36.7 °F 39.0 °F 97% 30.21 in 10.0 mi NNW 4.6 mph - N/A   Overcast
5:53 AM 39.9 °F 35.1 °F 39.0 °F 97% 30.21 in 10.0 mi NW 6.9 mph - N/A   Overcast
6:04 AM 39.2 °F 35.0 °F 39.2 °F 100% 30.20 in 10.0 mi NW 5.8 mph - N/A   Overcast
6:14 AM 39.2 °F 35.0 °F 39.2 °F 100% 30.20 in 10.0 mi NNW 5.8 mph - N/A   Overcast
6:53 AM 39.9 °F 35.1 °F 39.0 °F 97% 30.19 in 10.0 mi NNW 6.9 mph - N/A   Overcast
7:53 AM 39.9 °F 35.8 °F 39.0 °F 97% 30.19 in 10.0 mi NNW 5.8 mph - N/A   Overcast
8:53 AM 39.9 °F 35.8 °F 39.0 °F 97% 30.19 in 10.0 mi NNW 5.8 mph - N/A   Mostly Cloudy
9:53 AM 41.0 °F 35.2 °F 39.0 °F 93% 30.18 in 10.0 mi NNW 9.2 mph - N/A   Overcast
10:53 AM 41.0 °F 39.0 °F 39.9 °F 96% 30.17 in 10.0 mi NNW 3.5 mph - N/A   Overcast
11:53 AM 41.0 °F 38.0 °F 39.0 °F 93% 30.17 in 10.0 mi NW 4.6 mph - N/A   Overcast
12:53 PM 41.0 °F - 39.9 °F 96% 30.17 in 10.0 mi Calm Calm - N/A   Overcast
1:53 PM 41.0 °F - 39.0 °F 93% 30.16 in 10.0 mi Calm Calm - N/A   Overcast
2:53 PM 41.0 °F 38.0 °F 39.9 °F 96% 30.15 in 10.0 mi SE 4.6 mph - 0.01 in Rain Light Rain
3:53 PM 41.0 °F 37.1 °F 39.9 °F 96% 30.16 in 9.0 mi SE 5.8 mph - 0.02 in Rain Light Rain
4:53 PM 41.0 °F - 41.0 °F 100% 30.12 in 10.0 mi Calm Calm - 0.06 in Rain Light Rain
5:53 PM 42.1 °F 40.2 °F 39.9 °F 92% 30.13 in 10.0 mi SE 3.5 mph - 0.03 in Rain Light Rain
6:53 PM 42.1 °F - 41.0 °F 96% 30.11 in 10.0 mi Calm Calm - 0.01 in Rain Light Rain
7:53 PM 42.1 °F 40.2 °F 39.9 °F 92% 30.12 in 10.0 mi SSE 3.5 mph - 0.00 in   Overcast
8:53 PM 42.1 °F 38.4 °F 39.9 °F 92% 30.13 in 10.0 mi East 5.8 mph - 0.02 in   Overcast
9:53 PM 42.1 °F 37.1 °F 41.0 °F 96% 30.12 in 10.0 mi ESE 8.1 mph - 0.00 in Rain Light Rain
10:53 PM 42.1 °F 39.2 °F 39.9 °F 92% 30.13 in 10.0 mi SE 4.6 mph - 0.00 in   Mostly Cloudy
11:53 PM 42.1 °F 40.2 °F 39.9 °F 92% 30.12 in 10.0 mi SSW 3.5 mph - N/A   Mostly Cloudy